FW5469 Weather Reports


Display with metric or nautical units.
time (UTC)temp
F
wind
direction
speed
MPH
gust
MPH
rain 1hr
in
rain 24hr
in
rain mn
in
humidity
%
barometer
mb
20260507141555 52 340 2.0 6.0 0.00 0.00 0.00 61 1011.4
20260507140100 51 326 1.0 3.0 0.00 0.00 0.00 67 1011.6
20260507134603 51 311 1.0 4.0 0.00 0.00 0.00 69 1011.8
20260507133129 51 308 1.0 4.0 0.00 0.00 0.00 69 1011.9
20260507131555 50 0 0.0 4.0 0.00 0.00 0.00 71 1012.0
20260507130106 49 142 0.0 3.0 0.00 0.00 0.00 73 1012.0
20260507124556 48 311 0.0 4.0 0.00 0.00 0.00 73 1012.0
20260507123055 47 146 1.0 4.0 0.00 0.00 0.00 75 1012.0
20260507121621 46 0 0.0 4.0 0.00 0.00 0.00 77 1011.8
20260507120103 46 0 1.0 5.0 0.00 0.00 0.00 78 1011.8
20260507114638 45 200 0.0 4.0 0.00 0.00 0.00 79 1011.6
20260507113056 44 233 1.0 4.0 0.00 0.00 0.00 80 1011.6
20260507111601 42 0 0.0 0.0 0.00 0.00 0.00 85 1011.6
20260507110059 41 0 0.0 0.0 0.00 0.00 0.00 85 1011.4
20260507104554 41 0 0.0 0.0 0.00 0.00 0.00 86 1011.2
20260507103055 41 0 0.0 0.0 0.00 0.00 0.00 85 1011.1
20260507101603 41 0 0.0 0.0 0.00 0.00 0.00 86 1011.1
20260507100057 41 0 0.0 0.0 0.00 0.00 0.00 86 1011.1
20260507094604 41 0 0.0 0.0 0.00 0.02 0.00 84 1011.2
20260507093054 42 0 0.0 0.0 0.00 0.02 0.00 82 1011.2
20260507091555 42 0 0.0 2.0 0.00 0.02 0.00 81 1011.1
20260507090100 42 0 0.0 2.0 0.00 0.02 0.00 84 1011.2
20260507084601 40 0 0.0 0.0 0.00 0.07 0.00 88 1011.2
20260507083056 40 0 0.0 0.0 0.00 0.07 0.00 89 1011.3
20260507081556 40 0 0.0 0.0 0.00 0.07 0.00 89 1011.4
20260507080120 39 0 0.0 0.0 0.00 0.07 0.00 89 1011.5
20260507074558 39 0 0.0 0.0 0.00 0.13 0.00 89 1011.4
20260507073106 40 0 0.0 0.0 0.00 0.13 0.00 88 1011.4
20260507071555 40 0 0.0 0.0 0.00 0.13 0.00 88 1011.5
20260507070055 40 0 0.0 0.0 0.00 0.13 0.00 88 1011.8
20260507064600 40 0 0.0 0.0 0.00 0.15 0.00 88 1011.9
20260507063105 40 0 0.0 0.0 0.00 0.15 0.00 87 1011.9
20260507060056 41 0 0.0 0.0 0.00 0.15 0.00 87 1012.0
20260507054555 42 0 0.0 0.0 0.00 0.20 0.00 86 1012.2
20260507053109 42 0 0.0 1.0 0.00 0.20 0.00 87 1012.2
20260507051558 42 0 0.0 0.0 0.00 0.20 0.00 86 1012.2
20260507050055 43 0 0.0 0.0 0.00 0.20 0.00 85 1012.3
20260507044555 44 0 0.0 0.0 0.00 0.25 0.00 84 1012.4
20260507043055 44 0 0.0 1.0 0.00 0.25 0.00 84 1012.4
20260507041559 44 140 0.0 1.0 0.00 0.25 0.00 84 1012.4
20260507034556 44 0 0.0 0.0 0.00 0.32 0.25 84 1012.8
20260507033101 44 0 0.0 1.0 0.00 0.32 0.25 84 1012.9
20260507031557 44 0 0.0 0.0 0.00 0.32 0.25 84 1013.0
20260507030058 44 0 0.0 0.0 0.00 0.32 0.25 84 1013.2
20260507024606 44 0 0.0 0.0 0.00 0.47 0.25 82 1012.9
20260507023057 45 0 0.0 0.0 0.00 0.47 0.25 80 1012.7
20260507021559 45 0 0.0 0.0 0.00 0.47 0.25 79 1012.7
20260507020113 46 0 0.0 0.0 0.00 0.47 0.25 79 1012.7
20260507014605 46 0 0.0 0.0 0.00 0.56 0.25 78 1012.5
20260507013059 46 0 0.0 0.0 0.00 0.56 0.25 76 1012.3
20260507011555 46 0 0.0 0.0 0.00 0.56 0.25 75 1012.2
20260507004605 47 0 0.0 0.0 0.00 0.65 0.25 73 1012.2
20260507003057 48 0 0.0 0.0 0.00 0.65 0.25 71 1012.1
20260507001556 48 0 0.0 1.0 0.00 0.65 0.25 68 1012.1
20260507000056 48 101 0.0 2.0 0.00 0.65 0.25 68 1012.1
20260506234555 49 107 1.0 2.0 0.00 0.69 0.25 67 1012.1
20260506233110 49 0 0.0 1.0 0.00 0.69 0.25 68 1012.0
20260506231602 49 0 1.0 3.0 0.00 0.69 0.25 67 1011.9
20260506230059 50 0 0.0 3.0 0.00 0.69 0.25 68 1011.9
20260506224559 50 34 0.0 3.0 0.00 0.85 0.25 67 1011.8
20260506223055 50 53 1.0 3.0 0.00 0.85 0.25 67 1011.9
20260506221611 50 18 1.0 5.0 0.00 0.85 0.25 67 1011.7
20260506220056 50 70 1.0 5.0 0.00 0.85 0.25 67 1011.5
20260506214556 51 63 0.0 4.0 0.00 1.00 0.25 67 1011.4
20260506213112 51 123 2.0 6.0 0.00 1.00 0.25 65 1011.1
20260506211555 52 2 2.0 5.0 0.00 1.00 0.25 64 1011.1
20260506210056 52 68 1.0 4.0 0.00 1.00 0.25 64 1011.0
20260506204556 53 326 3.0 6.0 0.00 1.16 0.25 63 1011.0
20260506203056 53 300 3.0 9.0 0.00 1.16 0.25 60 1010.9
20260506201554 53 40 1.0 5.0 0.00 1.16 0.25 60 1010.8
20260506200055 54 253 1.0 9.0 0.00 1.16 0.25 55 1010.9
20260506194601 54 304 2.0 7.0 0.00 1.20 0.25 57 1011.0
20260506193057 55 309 3.0 6.0 0.00 1.20 0.25 56 1010.8
20260506191557 54 94 3.0 9.0 0.00 1.20 0.25 59 1011.0
20260506190101 55 106 3.0 10.0 0.00 1.20 0.25 60 1010.9
20260506184603 56 297 2.0 8.0 0.00 1.20 0.25 61 1011.1
20260506183104 54 103 3.0 9.0 0.00 1.20 0.25 65 1011.1
20260506181623 54 112 3.0 8.0 0.00 1.20 0.25 67 1011.2
20260506180058 53 317 3.0 7.0 0.00 1.20 0.25 69 1011.1
20260506174555 53 330 3.0 10.0 0.00 1.20 0.25 66 1011.2
20260506173101 52 353 3.0 7.0 0.00 1.20 0.25 69 1010.8
20260506171600 53 338 2.0 9.0 0.00 1.20 0.25 69 1011.0
20260506170058 53 18 4.0 11.0 0.00 1.20 0.25 69 1011.2
20260506164600 53 144 3.0 9.0 0.00 1.20 0.25 72 1011.0
20260506163103 52 11 2.0 10.0 0.00 1.20 0.25 74 1010.7
20260506161557 52 354 3.0 9.0 0.00 1.20 0.25 74 1010.5
20260506160109 52 16 3.0 11.0 0.00 1.20 0.25 73 1010.3
20260506154601 52 125 3.0 10.0 0.00 1.20 0.25 78 1010.5
20260506153112 52 50 3.0 9.0 0.00 1.20 0.25 80 1010.0
20260506151558 51 307 2.0 8.0 0.00 1.20 0.25 81 1009.6
20260506144558 50 340 2.0 9.0 0.00 1.20 0.25 85 1009.6
20260506143057 49 293 4.0 10.0 0.00 1.20 0.25 85 1009.5